Weather History for State College, PA

Change the Weather History Date:

Tuesday, November 13, 2012

  Actual Average Record
Temperature  
Mean Temperature 36 °F -  
Max Temperature 41 °F 47 °F 70 °F (1964)
Min Temperature 32 °F 31 °F 18 °F (1981)
Degree Days  
Heating Degree Days 28    
Moisture  
Dew Point 27 °F    
Average Humidity 70    
Maximum Humidity 91    
Minimum Humidity 49    
Precipitation  
Precipitation 0.11 in - - ()
Sea Level Pressure  
Sea Level Pressure 30.37 in    
Wind  
Wind Speed 9 mph (NW)    
Max Wind Speed 15 mph    
Max Gust Speed 20 mph    
Visibility 10 miles    
Events Rain    
Averages and records for this station are not official NWS values.
T = Trace of Precipitation, MM = Missing Value Source: NWS Daily Summary

Daily Weather History Graph

Daily Weather History Graph

Search for Another Location

Airport:

Trip Planner

Search our weather history database for the weather conditions in past years. The results will help you decide how hot, cold, wet, or windy it might be!

Date:

Astronomy

Nov. 13, 2012 Rise Set
Actual Time 6:56 AM EST 4:54 PM EST
Civil Twilight 6:27 AM EST 5:23 PM EST
Nautical Twilight 5:54 AM EST 5:56 PM EST
Astronomical Twilight 5:21 AM EST 6:29 PM EST
Moon 6:32 AM EST (11/13) 4:45 PM EST (11/13)
Length of Visible Light 10h 56m
Length of Day
9h 57m
Waning Crescent, 0% of the Moon is Illuminated
Nov 13
Waning Crescent
Nov 13
New
Nov 20
First Quarter
Nov 28
Full
Dec 6
Last Quarter

Hourly Weather History & Observations

Time (EST) Temp. Windchill Dew Point Humidity Pressure Visibility Wind Dir Wind Speed Gust Speed Precip Events Conditions
12:15 AM 41.4 °F 34.0 °F 36.7 °F 83% 30.23 in 7.0 mi West 13.8 mph 17.3 mph 0.02 in   Drizzle
12:35 AM 40.8 °F 34.1 °F 36.7 °F 85% 30.24 in 10.0 mi West 11.5 mph 16.1 mph 0.02 in   Light Drizzle
12:55 AM 39.9 °F 32.9 °F 35.2 °F 83% 30.25 in 10.0 mi West 11.5 mph 19.6 mph N/A Rain Rain
1:15 AM 39.2 °F 34.2 °F 35.6 °F 87% 30.25 in 7.0 mi WNW 6.9 mph - 0.03 in Rain Light Rain
1:35 AM 38.7 °F 30.1 °F 34.2 °F 84% 30.25 in 10.0 mi WNW 15.0 mph 19.6 mph 0.03 in Rain Light Rain
1:55 AM 37.0 °F 29.8 °F 32.5 °F 84% 30.25 in 5.0 mi West 10.4 mph 16.1 mph N/A Rain Rain
2:35 AM 36.5 °F 29.7 °F 32.9 °F 87% 30.28 in 7.0 mi WSW 9.2 mph - 0.03 in Rain Light Rain
2:55 AM 36.0 °F 29.0 °F 32.2 °F 86% 30.28 in 4.0 mi West 9.2 mph - 0.01 in   Light Drizzle
3:15 AM 34.5 °F 30.4 °F 32.0 °F 90% 30.26 in 10.0 mi WSW 4.6 mph - 0.03 in Rain Light Rain
3:35 AM 34.7 °F 31.8 °F 32.0 °F 90% 30.26 in 10.0 mi SW 3.5 mph - 0.04 in Rain Light Rain
3:55 AM 35.2 °F 30.3 °F 32.9 °F 91% 30.26 in 10.0 mi West 5.8 mph - N/A   Overcast
4:15 AM 36.0 °F 29.6 °F 32.0 °F 86% 30.29 in 10.0 mi WNW 8.1 mph - 0.01 in Rain Light Rain
4:35 AM 35.2 °F 26.6 °F 30.9 °F 84% 30.29 in 10.0 mi WNW 12.7 mph 18.4 mph 0.01 in   Overcast
5:53 AM 33.8 °F 27.0 °F 24.8 °F 70% 30.33 in 10.0 mi WNW 8.1 mph - N/A   Scattered Clouds
6:17 AM 32.0 °F 27.5 °F 24.8 °F 75% 30.34 in 10.0 mi WNW 4.6 mph - N/A   Mostly Cloudy
6:53 AM 33.8 °F 30.8 °F 24.8 °F 70% 30.35 in 10.0 mi NW 3.5 mph - N/A   Overcast
7:53 AM 33.8 °F 30.8 °F 24.8 °F 70% 30.38 in 10.0 mi NNW 3.5 mph - N/A   Overcast
9:14 AM 33.8 °F 27.7 °F 24.8 °F 70% 30.38 in 10.0 mi WNW 6.9 mph - N/A   Scattered Clouds
9:53 AM 35.6 °F 28.0 °F 24.8 °F 65% 30.39 in 10.0 mi West 10.4 mph - N/A   Partly Cloudy
10:53 AM 37.4 °F 33.8 °F 24.8 °F 60% 30.39 in 10.0 mi West 4.6 mph - N/A   Partly Cloudy
11:53 AM 39.2 °F 33.0 °F 23.0 °F 52% 30.37 in 10.0 mi NNW 9.2 mph - N/A   Mostly Cloudy
12:53 PM 39.2 °F 33.0 °F 23.0 °F 52% 30.36 in 10.0 mi NW 9.2 mph - N/A   Overcast
1:53 PM 39.2 °F 33.0 °F 21.2 °F 49% 30.35 in 10.0 mi NNW 9.2 mph - N/A   Mostly Cloudy
2:53 PM 39.2 °F 33.6 °F 23.0 °F 52% 30.36 in 10.0 mi NNW 8.1 mph - N/A   Mostly Cloudy
3:53 PM 37.4 °F 31.4 °F 21.2 °F 52% 30.38 in 10.0 mi NW 8.1 mph - N/A   Overcast
4:23 PM 37.4 °F 31.4 °F 23.0 °F 56% 30.40 in 10.0 mi NW 8.1 mph - N/A   Overcast
5:53 PM 35.6 °F 29.2 °F 23.0 °F 60% 30.43 in 10.0 mi WNW 8.1 mph - N/A   Overcast
6:53 PM 35.6 °F 28.6 °F 23.0 °F 60% 30.44 in 10.0 mi WNW 9.2 mph - N/A   Overcast
7:53 PM 35.6 °F 29.2 °F 23.0 °F 60% 30.45 in 10.0 mi WNW 8.1 mph - N/A   Overcast
8:15 PM 35.1 °F 31.0 °F 23.4 °F 62% 30.46 in 10.0 mi North 4.6 mph - N/A   Overcast
8:35 PM 34.9 °F 30.8 °F 22.3 °F 60% 30.46 in 10.0 mi NNW 4.6 mph - N/A   Overcast
8:53 PM 35.6 °F 28.6 °F 23.0 °F 60% 30.47 in 10.0 mi NW 9.2 mph - N/A   Overcast
8:55 PM 34.9 °F 32.0 °F 22.8 °F 61% 30.47 in 10.0 mi NNW 3.5 mph - N/A   Overcast
9:15 PM 34.7 °F 31.8 °F 23.5 °F 64% 30.47 in 10.0 mi NNW 3.5 mph - N/A   Overcast
9:35 PM 34.7 °F 31.8 °F 23.0 °F 62% 30.47 in 10.0 mi NNW 3.5 mph - N/A   Overcast
9:55 PM 34.7 °F 30.6 °F 23.5 °F 64% 30.48 in 10.0 mi North 4.6 mph - N/A   Overcast
10:15 PM 34.7 °F 30.6 °F 23.7 °F 64% 30.48 in 10.0 mi NNW 4.6 mph - N/A   Overcast
10:35 PM 34.3 °F 29.2 °F 23.9 °F 66% 30.48 in 10.0 mi North 5.8 mph - N/A   Overcast
10:55 PM 34.3 °F 29.2 °F 23.9 °F 66% 30.48 in 10.0 mi NNW 5.8 mph - N/A   Overcast
11:15 PM 34.3 °F 30.2 °F 23.7 °F 65% 30.48 in 10.0 mi NNW 4.6 mph - N/A   Overcast
11:35 PM 34.2 °F - 23.9 °F 66% 30.48 in 10.0 mi Calm Calm - N/A   Overcast
11:55 PM 34.2 °F 31.2 °F 23.9 °F 66% 30.49 in 10.0 mi North 3.5 mph - N/A   Overcast